Pottstown, PA

8:15 AM EST on December 18, 2017 (GMT -0500)
Pottstown Limerick

Weather History for KPTW - October, 2012

Change the Weather History Date:

Saturday, October 6, 2012

  Actual Average (KRDG) Record (KRDG)
Temperature  
Mean Temperature 62 °F -  
Max Temperature 72 °F 65 °F 92 °F (1941)
Min Temperature 52 °F 45 °F 32 °F (1992)
Degree Days  
Heating Degree Days 2    
Growing Degree Days 12 (Base 50)    
Moisture  
Dew Point 54 °F    
Average Humidity 79    
Maximum Humidity 100    
Minimum Humidity 54    
Precipitation  
Precipitation 0.01 in - - ()
Sea Level Pressure  
Sea Level Pressure 29.90 in    
Wind  
Wind Speed 3 mph (West)    
Max Wind Speed 17 mph    
Max Gust Speed 23 mph    
Visibility 8 miles    
Events      
Averages and records for this station are not official NWS values.
T = Trace of Precipitation, MM = Missing Value Source: NWS Daily Summary

Daily Weather History Graph

Daily Weather History Graph

Search for Another Location

Airport or City:

Trip Planner

Search our weather history database for the weather conditions in past years. The results will help you decide how hot, cold, wet, or windy it might be!

Date:

Astronomy

Oct. 06, 2012 Rise Set
Actual Time 7:04 AM EDT 6:35 PM EDT
Civil Twilight 6:36 AM EDT 7:02 PM EDT
Nautical Twilight 6:05 AM EDT 7:34 PM EDT
Astronomical Twilight 5:33 AM EDT 8:05 PM EDT
Moon 10:48 PM EDT (10/6) 12:57 PM EDT (10/6)
Length of Visible Light 12h 25m
Length of Day
11h 31m
Waning Gibbous, 65% of the Moon is Illuminated
Oct 6
Waning Gibbous
Oct 8
Last Quarter
Oct 15
New
Oct 21
First Quarter
Oct 29
Full

Hourly Weather History & Observations

Time (EDT) Temp. Dew Point Humidity Pressure Visibility Wind Dir Wind Speed Gust Speed Precip Events Conditions
12:54 AM 59.0 °F 57.0 °F 93% 29.93 in 6.0 mi Calm Calm - N/A   Clear
1:54 AM 59.0 °F 55.9 °F 90% 29.92 in 10.0 mi Calm Calm - N/A   Clear
2:54 AM 57.0 °F 55.9 °F 96% 29.90 in 6.0 mi Calm Calm - N/A   Clear
3:54 AM 55.9 °F 55.9 °F 100% 29.89 in 3.0 mi Calm Calm - N/A   Clear
4:54 AM 57.9 °F 57.0 °F 97% 29.87 in 3.0 mi Calm Calm - N/A   Clear
5:08 AM 57.2 °F 55.4 °F 94% 29.88 in 2.5 mi Calm Calm - N/A   Clear
5:20 AM 57.2 °F 55.4 °F 94% 29.88 in 3.0 mi Calm Calm - N/A   Clear
5:36 AM 57.2 °F 57.2 °F 100% 29.88 in 2.0 mi Calm Calm - N/A   Clear
5:50 AM 59.0 °F 57.2 °F 94% 29.88 in 4.0 mi SSE 3.5 mph - N/A   Clear
5:54 AM 60.1 °F 59.0 °F 96% 29.87 in 4.0 mi SSE 3.5 mph - N/A   Clear
6:54 AM 62.1 °F 59.0 °F 90% 29.86 in 6.0 mi Calm Calm - 0.01 in   Clear
7:54 AM 62.1 °F 60.1 °F 93% 29.86 in 9.0 mi Calm Calm - N/A   Clear
8:54 AM 66.0 °F 61.0 °F 84% 29.85 in 10.0 mi SW 4.6 mph - N/A   Clear
10:54 AM 72.0 °F 61.0 °F 68% 29.83 in 10.0 mi Variable 6.9 mph - N/A   Partly Cloudy
11:54 AM 71.1 °F 60.1 °F 68% 29.83 in 10.0 mi WSW 6.9 mph - N/A   Overcast
12:54 PM 70.0 °F 59.0 °F 68% 29.83 in 10.0 mi West 8.1 mph - N/A   Overcast
1:54 PM 71.1 °F 59.0 °F 66% 29.83 in 10.0 mi Variable 6.9 mph 16.1 mph N/A   Mostly Cloudy
2:54 PM 66.9 °F 55.0 °F 66% 29.86 in 10.0 mi WNW 10.4 mph 23.0 mph N/A   Overcast
3:54 PM 66.0 °F 54.0 °F 65% 29.88 in 10.0 mi WNW 12.7 mph 18.4 mph N/A   Mostly Cloudy
4:54 PM 64.9 °F 48.0 °F 54% 29.90 in 10.0 mi NW 17.3 mph 23.0 mph N/A   Clear
5:54 PM 62.1 °F 46.0 °F 56% 29.92 in 10.0 mi NW 8.1 mph - N/A   Clear
6:54 PM 57.0 °F 46.0 °F 67% 29.95 in 10.0 mi NW 6.9 mph - N/A   Clear
7:54 PM 55.9 °F 44.1 °F 64% 29.98 in 10.0 mi WNW 3.5 mph - N/A   Clear
8:54 PM 53.1 °F 43.0 °F 69% 30.00 in 10.0 mi NW 8.1 mph - N/A   Clear
9:54 PM 53.1 °F 41.0 °F 64% 30.01 in 10.0 mi NW 4.6 mph - N/A   Clear
10:54 PM 53.1 °F 42.1 °F 66% 30.02 in 10.0 mi Calm Calm - N/A   Clear
11:54 PM 52.0 °F 42.1 °F 69% 30.03 in 10.0 mi Calm Calm - N/A   Clear